Sigfox identifier Datetime Temperature Humidity SNR
003C5BC3 2019-02-20 13:43:12 21 25 23.1
003C5BC3 2019-02-20 13:10:41 21.2 25 23.1
003C5BC3 2019-02-20 13:09:26 20.9 25 23.1
003C5BC3 2019-02-20 12:36:55 20.9 26 22.1
003C5BC3 2019-02-20 12:04:27 20.9 26 22.1
003C5BC3 2019-02-20 11:31:54 20.9 26 21
003C5BC3 2019-02-20 10:59:24 20.9 26 19.3
003C5BC3 2019-02-20 10:26:55 20.9 26 19.4
003C5BC3 2019-02-20 09:54:23 20.8 26 19.4
003C5BC3 2019-02-20 09:21:53 20.8 26 19.4
003C5BC3 2019-02-20 08:49:24 20.9 26 16.8
003C5BC3 2019-02-20 08:16:54 20.9 27 16.6
003C5BC3 2019-02-20 07:44:25 20.9 26 16.5
003C5BC3 2019-02-20 07:11:54 20.9 26 16.3
003C5BC3 2019-02-20 06:39:23 20.9 27 15.7
003C5BC3 2019-02-20 06:06:53 20.9 26 15.2
003C5BC3 2019-02-20 05:34:24 20.9 26 14.6
003C5BC3 2019-02-20 05:01:53 20.9 26 14.6
003C5BC3 2019-02-20 04:29:23 20.9 26 14.3
003C5BC3 2019-02-20 03:56:54 20.9 26 13.9
003C5BC3 2019-02-20 03:24:23 20.9 26 18
003C5BC3 2019-02-20 02:51:53 21 26 17.9
003C5BC3 2019-02-20 02:19:23 21 26 17.8
003C5BC3 2019-02-20 01:46:53 21 26 17.8
003C5BC3 2019-02-20 01:14:23 21 26 20
003C5BC3 2019-02-20 00:41:53 21 26 20
003C5BC3 2019-02-20 00:09:22 21 26 21.4
003C5BC3 2019-02-19 23:36:52 21 26 21.4
003C5BC3 2019-02-19 23:04:20 21 26 21.4
003C5BC3 2019-02-19 22:31:52 21 26 21.4
003C5BC3 2019-02-19 21:59:21 21 26 21.3
003C5BC3 2019-02-19 21:26:49 21.1 26 21.3
003C5BC3 2019-02-19 20:54:20 21.1 26 21.3
003C5BC3 2019-02-19 20:21:49 21.1 26 21.3
003C5BC3 2019-02-19 19:49:20 21.1 26 21.3
003C5BC3 2019-02-19 19:16:50 21.1 26 21.4
003C5BC3 2019-02-19 18:44:21 21.1 26 21.5
003C5BC3 2019-02-19 18:11:51 21.2 26 21.6
003C5BC3 2019-02-19 17:39:21 21.2 26 21.7
003C5BC3 2019-02-19 17:06:50 21.2 26 21.7
003C5BC3 2019-02-19 16:34:19 21.2 26 21.9
003C5BC3 2019-02-19 16:01:49 21.1 26 21.9
003C5BC3 2019-02-19 15:29:19 21.1 26 22
003C5BC3 2019-02-19 14:56:51 21.1 26 22
003C5BC3 2019-02-19 14:24:18 21.1 26 22.1
003C5BC3 2019-02-19 13:51:47 21.1 26 20.9
003C5BC3 2019-02-19 13:19:17 21.1 26 21
003C5BC3 2019-02-19 11:41:46 21 25 21
003C5BC3 2019-02-19 11:09:15 21 25 21.1
003C5BC3 2019-02-19 10:36:45 21.2 25 19.7
003C5BC3 2019-02-19 10:03:02 21 25 19.7
003C5BC3 2019-02-19 09:30:31 20.9 24 17.5
003C5BC3 2019-02-19 08:58:03 20.9 24 17.6
003C5BC3 2019-02-19 08:25:31 20.9 24 17.6
003C5BC3 2019-02-19 07:53:02 20.9 24 17.7
003C5BC3 2019-02-19 07:20:35 20.9 24 17.7
003C5BC3 2019-02-19 06:48:05 20.9 24 17.7
003C5BC3 2019-02-19 06:15:36 20.9 24 17.9
003C5BC3 2019-02-19 05:43:07 20.9 24 18.1
003C5BC3 2019-02-19 05:10:37 20.9 23 18.1
003C5BC3 2019-02-19 04:38:07 20.9 23 20.1
003C5BC3 2019-02-19 04:05:37 20.9 23 19.9
003C5BC3 2019-02-19 03:33:09 20.9 23 19.8
003C5BC3 2019-02-19 03:00:38 20.9 23 19.9
003C5BC3 2019-02-19 02:28:09 20.9 23 19.8
003C5BC3 2019-02-19 01:55:40 20.9 23 19.6
003C5BC3 2019-02-19 01:23:10 20.9 23 19.8
003C5BC3 2019-02-19 00:50:40 20.9 23 19.7
003C5BC3 2019-02-19 00:18:11 20.9 23 19.9
003C5BC3 2019-02-18 23:45:41 20.9 22 19.9
003C5BC3 2019-02-18 23:13:11 21 22 19.8
003C5BC3 2019-02-18 22:40:44 20.9 22 20.1
003C5BC3 2019-02-18 22:08:12 21 22 20.5
003C5BC3 2019-02-18 21:35:42 21 22 20.7
003C5BC3 2019-02-18 21:03:13 21 22 20.7
003C5BC3 2019-02-18 20:30:44 21 22 21.1
003C5BC3 2019-02-18 19:58:16 21 22 21.3
003C5BC3 2019-02-18 19:25:45 21 22 21.5
003C5BC3 2019-02-18 18:53:17 21 22 21.7
003C5BC3 2019-02-18 18:20:48 21 21 21.8
003C5BC3 2019-02-18 17:48:21 21 21 22
003C5BC3 2019-02-18 17:15:50 21 21 22.2
003C5BC3 2019-02-18 16:43:21 21.1 21 22.2
003C5BC3 2019-02-18 16:10:52 21.1 21 22.2
003C5BC3 2019-02-18 15:38:25 21.1 21 22.4
003C5BC3 2019-02-18 15:05:54 21.1 21 21.5
003C5BC3 2019-02-18 14:33:24 21.2 20 21.6
003C5BC3 2019-02-18 14:00:56 21.2 20 21.8
003C5BC3 2019-02-18 13:28:29 21.3 20 21.9
003C5BC3 2019-02-18 12:55:56 21.3 20 22.1
003C5BC3 2019-02-18 12:23:29 21.4 20 22.3
003C5BC3 2019-02-18 11:50:58 21.3 20 22.3
003C5BC3 2019-02-18 11:18:29 21.3 20 22.5
003C5BC3 2019-02-18 10:45:59 21.2 20 22.5
003C5BC3 2019-02-18 10:13:31 21.1 20 22.6
003C5BC3 2019-02-18 09:41:02 21.1 20 22.7
003C5BC3 2019-02-18 09:08:33 21 19 22.6
003C5BC3 2019-02-18 08:36:03 21 19 22.5
003C5BC3 2019-02-18 08:03:33 21.2 19 22.5
003C5BC3 2019-02-18 08:02:18 21 19 22.6
003C5BC3 2019-02-18 07:29:49 20.9 19 22.5
003C5BC3 2019-02-18 06:57:19 20.9 19 22.5
003C5BC3 2019-02-18 06:24:50 20.9 19 22.6
003C5BC3 2019-02-18 05:52:21 20.9 19 22.5
003C5BC3 2019-02-18 05:19:52 20.9 19 22.5
003C5BC3 2019-02-18 04:47:23 20.9 20 22.5
003C5BC3 2019-02-18 04:14:54 20.9 20 22.5
003C5BC3 2019-02-18 03:42:25 20.9 20 22.5
003C5BC3 2019-02-18 03:09:54 20.9 20 22.6
003C5BC3 2019-02-18 02:37:23 21 20 22.6
003C5BC3 2019-02-18 02:04:53 21 20 22.6
003C5BC3 2019-02-18 01:32:24 21 20 22.7
003C5BC3 2019-02-18 00:59:53 21 20 22.7
003C5BC3 2019-02-18 00:27:23 21 20 22.7
003C5BC3 2019-02-17 23:54:53 21 20 22.6
003C5BC3 2019-02-17 23:22:23 21 20 22.5
003C5BC3 2019-02-17 22:49:54 21 20 22.6
003C5BC3 2019-02-17 22:17:24 21 20 22.6
003C5BC3 2019-02-17 21:44:54 21 21 22.7
003C5BC3 2019-02-17 21:12:25 21 21 22.9
003C5BC3 2019-02-17 20:39:54 21 21 22.9
003C5BC3 2019-02-17 20:07:25 21 21 22.9
003C5BC3 2019-02-17 19:34:55 21.1 21 22.9
003C5BC3 2019-02-17 19:02:26 21.1 21 22.9
003C5BC3 2019-02-17 18:29:57 21.1 21 22.8
003C5BC3 2019-02-17 17:57:27 21.1 21 22.8
003C5BC3 2019-02-17 17:24:57 21.1 21 22.7
003C5BC3 2019-02-17 16:52:26 21.1 21 22.6
003C5BC3 2019-02-17 16:19:56 21.1 21 22.7
003C5BC3 2019-02-17 15:47:27 21.1 21 22.7
003C5BC3 2019-02-17 15:14:56 21.1 22 22.7
003C5BC3 2019-02-17 14:42:27 21.1 22 22.7
003C5BC3 2019-02-17 14:09:57 21.1 22 22.8
003C5BC3 2019-02-17 13:37:28 21.1 22 22.9
003C5BC3 2019-02-17 13:04:59 21.1 22 22.8
003C5BC3 2019-02-17 12:32:28 21.1 22 22.8
003C5BC3 2019-02-17 11:59:58 21.1 22 22.7
003C5BC3 2019-02-17 11:27:29 21.1 22 22.7
003C5BC3 2019-02-17 10:55:00 21.1 22 22.7
003C5BC3 2019-02-17 10:22:31 21 22 22.8
003C5BC3 2019-02-17 09:50:02 21.1 22 23
003C5BC3 2019-02-17 09:17:32 21.1 22 23
003C5BC3 2019-02-17 08:45:02 21.1 23 22.9
003C5BC3 2019-02-17 08:12:34 21.1 23 22.8
003C5BC3 2019-02-17 07:40:04 21.1 23 22.6
003C5BC3 2019-02-17 07:07:35 21.1 23 22.6
003C5BC3 2019-02-17 06:35:05 21.1 23 22.5
003C5BC3 2019-02-17 06:02:36 21.1 23 22.6
003C5BC3 2019-02-17 05:30:07 21.4 23 22.5
003C5BC3 2019-02-17 05:28:51 21.1 23 22.7
003C5BC3 2019-02-17 04:56:22 21.2 24 22.8
003C5BC3 2019-02-17 04:23:54 21.1 24 23
003C5BC3 2019-02-17 03:51:23 21.2 24 22.9
003C5BC3 2019-02-17 03:18:53 21.2 24 22.9
003C5BC3 2019-02-17 02:46:24 21.1 24 23
003C5BC3 2019-02-17 02:13:55 21.1 24 23
003C5BC3 2019-02-17 01:41:26 21.2 24 23
003C5BC3 2019-02-17 01:08:57 21.2 25 22.9
003C5BC3 2019-02-17 00:36:28 21.2 25 22.9
003C5BC3 2019-02-17 00:03:59 21.2 25 22.9
003C5BC3 2019-02-16 23:31:30 21.2 25 22.8
003C5BC3 2019-02-16 22:59:01 21.2 25 22.9
003C5BC3 2019-02-16 22:26:31 21.2 25 22.9
003C5BC3 2019-02-16 21:54:01 21.2 25 22.9
003C5BC3 2019-02-16 21:21:31 21.2 25 22.9
003C5BC3 2019-02-16 20:49:02 21.2 25 22.8
003C5BC3 2019-02-16 20:16:31 21.2 25 22.7
003C5BC3 2019-02-16 19:44:01 21.3 25 22.6
003C5BC3 2019-02-16 19:11:30 21.3 25 22.7
003C5BC3 2019-02-16 18:39:01 21.3 25 22.7
003C5BC3 2019-02-16 18:06:31 21.3 25 22.8
003C5BC3 2019-02-16 17:34:02 21.3 25 22.9
003C5BC3 2019-02-16 17:01:32 21.3 25 22.9
003C5BC3 2019-02-16 16:29:02 21.3 25 22.9
003C5BC3 2019-02-16 15:56:33 21.4 25 22.8
003C5BC3 2019-02-16 15:24:04 21.3 25 22.7
003C5BC3 2019-02-16 14:51:33 21.3 25 22.7
003C5BC3 2019-02-16 14:19:04 21.3 25 22.7
003C5BC3 2019-02-16 13:46:34 21.2 25 22.8
003C5BC3 2019-02-16 13:14:04 21.2 25 22.8
003C5BC3 2019-02-16 12:41:34 21.2 25 22.8
003C5BC3 2019-02-16 12:09:03 21.2 25 22.8
003C5BC3 2019-02-16 11:36:33 21.2 25 22.8
003C5BC3 2019-02-16 11:04:03 21.2 25 22.9
003C5BC3 2019-02-16 10:31:33 21.2 25 22.9
003C5BC3 2019-02-16 09:59:04 21.1 25 22.9
003C5BC3 2019-02-16 09:26:35 21.2 25 22.9
003C5BC3 2019-02-16 08:54:06 21.2 25 23
003C5BC3 2019-02-16 08:21:36 21.2 25 23
003C5BC3 2019-02-16 07:49:05 21.2 25 23
003C5BC3 2019-02-16 07:16:35 21.2 25 23
003C5BC3 2019-02-16 06:44:05 21.2 25 23.1
003C5BC3 2019-02-16 06:11:34 21.2 26 23.3
003C5BC3 2019-02-16 05:39:05 21.2 25 23.2
003C5BC3 2019-02-16 05:06:35 21.2 25 23.2
003C5BC3 2019-02-16 04:34:06 21.2 25 23.1
003C5BC3 2019-02-16 04:01:35 21.3 25 23.1
003C5BC3 2019-02-16 03:29:04 21.3 25 23.1
003C5BC3 2019-02-16 02:56:35 21.5 25 23.1
003C5BC3 2019-02-16 02:55:19 21.3 25 23.2
003C5BC3 2019-02-16 02:22:49 21.3 25 23.1
003C5BC3 2019-02-16 01:50:19 21.3 25 23.1
003C5BC3 2019-02-16 01:17:49 21.3 25 23.2
003C5BC3 2019-02-16 00:45:18 21.4 25 23.1
003C5BC3 2019-02-16 00:12:47 21.4 25 22.9
003C5BC3 2019-02-15 23:40:18 21.4 25 22.9
003C5BC3 2019-02-15 23:07:47 21.4 25 23
003C5BC3 2019-02-15 22:35:17 21.5 25 22.9
003C5BC3 2019-02-15 22:02:47 21.5 25 22.8
003C5BC3 2019-02-15 21:30:17 21.5 25 22.8
003C5BC3 2019-02-15 20:57:46 21.6 25 22.8
003C5BC3 2019-02-15 20:25:15 21.6 25 22.8
003C5BC3 2019-02-15 19:52:45 21.6 25 22.8
003C5BC3 2019-02-15 19:20:15 21.7 25 22.7
003C5BC3 2019-02-15 18:47:44 21.7 25 22.7
003C5BC3 2019-02-15 18:15:14 21.7 25 22.8
003C5BC3 2019-02-15 17:42:43 21.7 25 22.7
003C5BC3 2019-02-15 17:10:11 21.7 25 22.7
003C5BC3 2019-02-15 16:37:42 21.6 25 22.7
003C5BC3 2019-02-15 16:05:11 21.6 24 22.7
003C5BC3 2019-02-15 15:32:41 21.6 24 22.6
003C5BC3 2019-02-15 15:00:11 21.6 24 22.6
003C5BC3 2019-02-15 14:27:40 21.6 24 22.6
003C5BC3 2019-02-15 13:55:09 21.5 25 22.6
003C5BC3 2019-02-15 13:22:39 21.5 25 22.5
003C5BC3 2019-02-15 12:50:08 21.5 25 22.5
003C5BC3 2019-02-15 12:17:37 21.5 25 22.4
003C5BC3 2019-02-15 11:45:08 21.5 25 22.4
003C5BC3 2019-02-15 11:12:36 21.5 25 22.5
003C5BC3 2019-02-15 10:40:05 21.5 25 22.4
003C5BC3 2019-02-15 10:07:35 21.4 25 22.4
003C5BC3 2019-02-15 09:35:05 21.4 25 22.4
003C5BC3 2019-02-15 09:02:34 21.4 25 22.4
003C5BC3 2019-02-15 08:30:04 21.4 25 22.5
003C5BC3 2019-02-15 07:57:35 21.4 25 22.5
003C5BC3 2019-02-15 07:25:04 21.3 25 22.6
003C5BC3 2019-02-15 06:52:36 21.4 25 22.5
003C5BC3 2019-02-15 06:20:07 21.4 25 22.5
003C5BC3 2019-02-15 05:47:37 21.4 25 23.3
003C5BC3 2019-02-15 05:15:08 21.4 25 23.3
003C5BC3 2019-02-15 04:42:38 21.4 25 23.1
003C5BC3 2019-02-15 04:10:09 21.4 25 23
003C5BC3 2019-02-15 03:37:38 21.4 25 22.9
003C5BC3 2019-02-15 03:05:08 21.4 25 22.9
003C5BC3 2019-02-15 02:32:38 21.4 25 22.9
003C5BC3 2019-02-15 02:00:09 21.4 25 22.9
003C5BC3 2019-02-15 01:27:40 21.4 25 22.9
003C5BC3 2019-02-15 00:55:11 21.5 25 22.8
003C5BC3 2019-02-15 00:22:42 21.7 25 22.8
003C5BC3 2019-02-15 00:21:26 21.5 25 22.8
003C5BC3 2019-02-14 23:48:57 21.5 25 22.7
003C5BC3 2019-02-14 23:16:27 21.5 25 22.7
003C5BC3 2019-02-14 22:43:56 21.5 25 22.6
003C5BC3 2019-02-14 22:11:26 21.6 25 22.6
003C5BC3 2019-02-14 21:38:55 21.6 25 22.7
003C5BC3 2019-02-14 21:06:26 21.6 24 22.8
003C5BC3 2019-02-14 20:33:54 21.7 24 22.7
003C5BC3 2019-02-14 20:01:25 21.7 24 22.8
003C5BC3 2019-02-14 19:28:56 21.8 24 22.8
003C5BC3 2019-02-14 18:56:26 21.8 24 22.9
003C5BC3 2019-02-14 18:23:56 21.8 24 22.9
003C5BC3 2019-02-14 17:51:27 21.9 24 22.8
003C5BC3 2019-02-14 17:18:59 21.9 24 22.8
003C5BC3 2019-02-14 16:46:29 21.9 24 22.1
003C5BC3 2019-02-14 16:13:59 21.9 24 22.1
003C5BC3 2019-02-14 15:41:29 21.9 24 22.2
003C5BC3 2019-02-14 15:08:59 21.8 24 22.5
003C5BC3 2019-02-14 14:36:30 21.8 24 22.6
003C5BC3 2019-02-14 14:04:03 21.7 23 22.5
003C5BC3 2019-02-14 13:31:31 21.7 23 22.6
003C5BC3 2019-02-14 12:59:01 21.6 23 22.7
003C5BC3 2019-02-14 12:26:31 21.5 23 22.7
003C5BC3 2019-02-14 11:54:02 21.4 23 22.7
003C5BC3 2019-02-14 11:21:33 21.3 23 23.5
003C5BC3 2019-02-14 10:49:04 21.2 24 23.5
003C5BC3 2019-02-14 10:16:34 21.1 24 23.6
003C5BC3 2019-02-14 09:44:05 21 23 23.7
003C5BC3 2019-02-14 09:11:35 21 24 23.7
003C5BC3 2019-02-14 08:39:06 21 23 23.7
003C5BC3 2019-02-14 08:06:38 21 24 23.6
003C5BC3 2019-02-14 07:34:08 21 24 23.5
003C5BC3 2019-02-14 07:01:40 21 25 23.5
003C5BC3 2019-02-14 06:29:11 21 25 23.5
003C5BC3 2019-02-14 05:56:42 21 25 23.3
003C5BC3 2019-02-14 05:24:13 21 25 23.2
003C5BC3 2019-02-14 04:51:43 21 26 23
003C5BC3 2019-02-14 04:19:15 21 25 23
003C5BC3 2019-02-14 03:46:46 21 25 22.9
003C5BC3 2019-02-14 03:14:15 21 25 23.5
003C5BC3 2019-02-14 02:41:46 21.1 25 23.5
003C5BC3 2019-02-14 02:09:16 21.1 25 23.5
003C5BC3 2019-02-14 01:36:46 21.1 25 23.4
003C5BC3 2019-02-14 01:04:16 21.1 25 23.3
003C5BC3 2019-02-14 00:31:45 21.1 25 23.2
003C5BC3 2019-02-13 23:59:15 21.1 25 23.1
003C5BC3 2019-02-13 23:26:48 21.1 25 23
003C5BC3 2019-02-13 22:54:19 21.2 25 23.1
003C5BC3 2019-02-13 22:21:48 21.3 25 23.2
003C5BC3 2019-02-13 21:49:18 21.5 25 22.5
003C5BC3 2019-02-13 21:48:03 21.3 25 22.5
003C5BC3 2019-02-13 21:15:34 21.4 25 22.7
003C5BC3 2019-02-13 20:43:04 21.4 25 22.6
003C5BC3 2019-02-13 20:10:33 21.5 25 22.6
003C5BC3 2019-02-13 19:38:03 21.5 25 22.7
003C5BC3 2019-02-13 19:05:35 21.6 25 22.9
003C5BC3 2019-02-13 18:33:05 21.6 25 22.9
003C5BC3 2019-02-13 18:00:34 21.7 27 22.8
003C5BC3 2019-02-13 17:28:04 21.7 26 22.9
003C5BC3 2019-02-13 16:55:33 21.6 27 23.7
003C5BC3 2019-02-13 16:23:03 21.5 26 23.8
003C5BC3 2019-02-13 15:50:32 21.4 26 23.9
003C5BC3 2019-02-13 15:18:01 21.4 26 23.9
003C5BC3 2019-02-13 14:45:30 21.2 25 23.9
003C5BC3 2019-02-13 14:12:59 21.1 25 23.2
003C5BC3 2019-02-13 13:40:30 21.2 24 23.2
003C5BC3 2019-02-13 13:08:00 21.3 25 23.2
003C5BC3 2019-02-13 12:35:30 21.3 25 23.1
003C5BC3 2019-02-13 12:03:00 21.3 25 23.2
003C5BC3 2019-02-13 11:30:31 21.2 25 23.3
003C5BC3 2019-02-13 10:58:02 21 25 23.3
003C5BC3 2019-02-13 10:25:34 20.9 25 23.3
003C5BC3 2019-02-13 09:53:05 21 24 23.2
003C5BC3 2019-02-13 09:20:36 21 23 23.2
003C5BC3 2019-02-13 08:48:07 21 22 23.1
003C5BC3 2019-02-13 08:15:38 21 21 23.1
003C5BC3 2019-02-13 07:43:09 21 20 23
003C5BC3 2019-02-13 07:10:39 21 19 22.9
003C5BC3 2019-02-13 06:38:11 21 19 22.9
003C5BC3 2019-02-13 06:05:41 21 19 22.6
003C5BC3 2019-02-13 05:33:10 21 19 22.5
003C5BC3 2019-02-13 05:00:41 21 19 22.5
003C5BC3 2019-02-13 04:28:11 21 19 22.6
003C5BC3 2019-02-13 03:55:42 21 19 22.5
003C5BC3 2019-02-13 03:23:12 21 19 21.5
003C5BC3 2019-02-13 02:50:43 21 18 21.3
003C5BC3 2019-02-13 02:18:13 21.1 18 21.2
003C5BC3 2019-02-13 01:45:45 21.1 18 21.3
003C5BC3 2019-02-13 01:13:16 21.1 17 21.3
003C5BC3 2019-02-13 00:40:47 21.1 17 21.4
003C5BC3 2019-02-13 00:08:17 21.2 19 21.4
003C5BC3 2019-02-12 23:35:48 21.1 19 21.4
003C5BC3 2019-02-12 23:03:17 21.2 19 21.4
003C5BC3 2019-02-12 22:30:46 21.2 18 21.4
003C5BC3 2019-02-12 21:58:18 21.3 18 21.3
003C5BC3 2019-02-12 21:25:45 21.3 19 21.4
003C5BC3 2019-02-12 20:53:13 21.4 21 22.4
003C5BC3 2019-02-12 20:20:44 21.5 21 22.3
003C5BC3 2019-02-12 19:48:14 21.5 20 22.3
003C5BC3 2019-02-12 19:15:43 21.6 20 22.2
003C5BC3 2019-02-12 19:14:28 21.4 20 22.3
003C5BC3 2019-02-12 18:41:57 21.3 19 22.3
003C5BC3 2019-02-12 18:09:28 21.3 18 22.4
003C5BC3 2019-02-12 17:36:55 21.3 18 22.4
003C5BC3 2019-02-12 17:04:24 21.5 18 22.5
003C5BC3 2019-02-12 16:31:53 21.5 18 22.5
003C5BC3 2019-02-12 15:59:22 21.6 18 22.5
003C5BC3 2019-02-12 15:26:52 21.6 18 22.4
003C5BC3 2019-02-12 14:54:20 21.5 19 22.4
003C5BC3 2019-02-12 14:21:49 21.4 19 22.3
003C5BC3 2019-02-12 13:49:19 21.3 18 22.4
003C5BC3 2019-02-12 13:16:48 21.4 18 22.3
003C5BC3 2019-02-12 12:44:18 21.5 18 22.3
003C5BC3 2019-02-12 12:11:48 21.5 18 22.2
003C5BC3 2019-02-12 11:39:17 21.5 18 22.1
003C5BC3 2019-02-12 11:06:47 21.5 19 22
003C5BC3 2019-02-12 10:34:16 21.4 19 22
003C5BC3 2019-02-12 10:01:46 21.3 20 21.8
003C5BC3 2019-02-12 09:29:15 21.2 21 22
003C5BC3 2019-02-12 08:56:45 21.1 23 22.2
003C5BC3 2019-02-12 08:24:15 21.1 22 22.2
003C5BC3 2019-02-12 07:51:44 21 23 21.2
003C5BC3 2019-02-12 07:19:15 21 25 21.1
003C5BC3 2019-02-12 06:46:45 21 26 21.2
003C5BC3 2019-02-12 06:14:15 21 26 21.2
003C5BC3 2019-02-12 05:41:45 21 26 21
003C5BC3 2019-02-12 05:09:14 21 26 20.9
003C5BC3 2019-02-12 04:36:43 21.1 27 20.7
003C5BC3 2019-02-12 04:04:12 21.1 27 20.8
003C5BC3 2019-02-12 03:31:41 21.1 27 20.7
003C5BC3 2019-02-12 02:59:09 21.1 27 20.7
003C5BC3 2019-02-12 02:26:40 21.1 27 20.7
003C5BC3 2019-02-12 01:54:06 21.1 27 20.7
003C5BC3 2019-02-12 01:21:35 21.1 27 20.6
003C5BC3 2019-02-12 00:49:05 21.2 27 20.8
003C5BC3 2019-02-12 00:16:32 21.2 27 21
003C5BC3 2019-02-11 23:44:00 21.2 27 21.1
003C5BC3 2019-02-11 23:11:29 21.3 27 21
003C5BC3 2019-02-11 22:38:58 21.3 27 21.3
003C5BC3 2019-02-11 22:06:29 21.4 27 21.4
003C5BC3 2019-02-11 21:33:57 21.5 27 21.6
003C5BC3 2019-02-11 21:01:28 21.6 27 21.5
003C5BC3 2019-02-11 20:28:55 21.7 27 22
003C5BC3 2019-02-11 19:56:24 21.8 27 21.4
003C5BC3 2019-02-11 19:23:52 21.9 27 21.2
003C5BC3 2019-02-11 18:51:19 22 27 20.9
003C5BC3 2019-02-11 18:18:47 22.2 26 20.5
003C5BC3 2019-02-11 17:46:14 22.4 27 21.1
003C5BC3 2019-02-11 17:13:41 22.4 27 20.7
003C5BC3 2019-02-11 16:41:07 22.3 30 0